Zurück zum Katalog

STARLINK-30761

AktivKommunikationVLEO
NORAD 58134·PAYLOAD·🇺🇸 United States

Gestartet Oct 22, 2023 von Cape Canaveral Space Force Station

Loading…

Nächste Überflüge (nächste 24 Stunden)

TLE

AktuellSource: CelesTrak SupGP

Epoche: Sep 15, 2026, 02:12 UTC

1 58134C 23162S   26258.09215278  .00027678  00000+0  10027-2 0  2581
2 58134  42.9995 142.9539 0001364 272.9636  38.7316 15.27559840    18

Verfolge STARLINK-30761 in Echtzeit mit AllMySat

Download on the App Store